Hourly Data Report for October 03, 2014

All times are specified in Local Standard Time (LST). Add 1 hour to adjust for Daylight Saving Time where and when it is observed.

FREDERICTON
NEW BRUNSWICK

45°52'08.000" N
66°32'14.000" W
20.70 m
8101505
71700
YFC

Download Data

Hourly Data (October 2014)
Hourly Data Report for October 3, 2014
Temp Definition
°C
Dew Point Temp Definition
°C
Rel Hum Definition
%
Wind Dir Definition
10's deg

Wind Spd Definition
km/h
Visibility Definition
km
Stn Press Definition
kPa
Hmdx Definition


Wind Chill Definition


Weather Definition


TIME
00:00 Legend Double Dagger 7.6 6.2 91 1 11 16.1 102.08     LegendNANA
01:00 Legend Double Dagger 8.2 6.7 90 35 9 16.1 102.06     LegendNANA
02:00 Legend Double Dagger 9.0 7.3 89 5 8 16.1 102.02     LegendNANA
03:00 Legend Double Dagger 9.7 7.8 88 36 13 16.1 102.00     LegendNANA
04:00 Legend Double Dagger 9.2 7.8 91 4 9 16.1 102.00     LegendNANA
05:00 Legend Double Dagger 8.4 7.3 93 2 9 16.1 101.99     LegendNANA
06:00 Legend Double Dagger 8.1 7.2 94 36 9 16.1 101.95     LegendNANA
07:00 Legend Double Dagger 8.4 7.2 92 1 8 16.1 101.94     LegendNANA
08:00 Legend Double Dagger 10.2 8.1 86 2 11 16.1 101.96     LegendNANA
09:00 Legend Double Dagger 10.9 8.4 84 3 22 16.1 101.96     LegendNANA
10:00 Legend Double Dagger 11.9 8.1 77 7 18 16.1 101.92     LegendNANA
11:00 Legend Double Dagger 14.2 8.2 67 7 21 16.1 101.87     LegendNANA
12:00 Legend Double Dagger 15.8 8.4 61 6 18 16.1 101.80     LegendNANA
13:00 Legend Double Dagger 17.2 7.7 53 6 13 16.1 101.70     LegendNANA
14:00 Legend Double Dagger 18.1 7.7 50 10 13 16.1 101.59     LegendNANA
15:00 Legend Double Dagger 18.7 8.2 50 7 13 16.1 101.51     LegendNANA
16:00 Legend Double Dagger 18.5 8.2 51 9 15 16.1 101.47     LegendNANA
17:00 Legend Double Dagger 17.8 8.1 53 5 17 16.1 101.43     LegendNANA
18:00 Legend Double Dagger 15.0 8.3 64 4 11 16.1 101.43     LegendNANA
19:00 Legend Double Dagger 13.7 7.9 68 4 17 16.1 101.43     LegendNANA
20:00 Legend Double Dagger 12.3 8.6 78 5 15 16.1 101.44     LegendNANA
21:00 Legend Double Dagger 11.0 8.9 87 3 15 16.1 101.44     LegendNANA
22:00 Legend Double Dagger 10.0 8.6 91 4 13 16.1 101.41     LegendNANA
23:00 Legend Double Dagger 9.0 8.1 94 1 9 16.1 101.37     LegendNANA

Notes on Data Quality.

Legend

  • E = Estimated
  • M = Missing
  • NA = Not Available
  • ‡ = Partner data that is not subject to review by the National Climate Archives
Date modified: